カタログに戻る

STARLINK-32512

運用中通信VLEO
NORAD 62027·PAYLOAD·🇺🇸 United States

打ち上げ Nov 18, 2024 から Vandenberg Space Force Base

Loading…

次のパス (今後24時間)

TLE

最新Source: CelesTrak SupGP

元期: Sep 15, 2026, 02:29 UTC

1 62027C 24213V   26258.10395833  .00052339  00000+0  15878-2 0  2584
2 62027  53.1597   6.8926 0001223  82.3057 330.3182 15.33529565    18

AllMySatでSTARLINK-32512をリアルタイム追跡

Download on the App Store